Wahoo, NE

8:42 AM CST on February 12, 2016 (GMT -0600)
Wahoo Municipal

Weather History for KAHQ - October, 2011

Change the Weather History Date:

Friday, October 7, 2011

  Actual Average Record
Temperature  
Mean Temperature 73 °F -  
Max Temperature 82 °F 69 °F 88 °F (1963)
Min Temperature 64 °F 41 °F 20 °F (2012)
Cooling Degree Days 8    
Growing Degree Days 23 (Base 50)    
Moisture  
Dew Point 54 °F    
Average Humidity 50    
Maximum Humidity 59    
Minimum Humidity 43    
Precipitation  
Precipitation 0.00 in - - ()
Sea Level Pressure  
Sea Level Pressure 29.88 in    
Wind  
Wind Speed 20 mph (South)    
Max Wind Speed 30 mph    
Max Gust Speed 38 mph    
Visibility 10 miles    
Events      
Averages and records for this station are not official NWS values.
T = Trace of Precipitation, MM = Missing Value Source: NWS Daily Summary

Daily Weather History Graph

Daily Weather History Graph

Search for Another Location

Airport or City:

Trip Planner

Search our weather history database for the weather conditions in past years. The results will help you decide how hot, cold, wet, or windy it might be!

Date:

Astronomy

Oct. 07, 2011 Rise Set
Actual Time 7:29 AM CDT 6:58 PM CDT
Civil Twilight 7:01 AM CDT 7:26 PM CDT
Nautical Twilight 6:29 AM CDT 7:58 PM CDT
Astronomical Twilight 5:57 AM CDT 8:30 PM CDT
Moon 4:44 PM CDT (10/7) 3:16 AM CDT (10/7)
Length of Visible Light 12h 24m
Length of Day
11h 29m
Waxing Gibbous, 83% of the Moon is Illuminated
Oct 7
Waxing Gibbous
Oct 11
Full
Oct 19
Last Quarter
Oct 26
New
Nov 2
First Quarter

Hourly Weather History & Observations

Time (CDT) Temp. Heat Index Dew Point Humidity Pressure Visibility Wind Dir Wind Speed Gust Speed Precip Events Conditions
12:15 AM 68.0 °F - 44.6 °F 43% 29.85 in 10.0 mi SSE 18.4 mph 26.5 mph N/A   Clear
12:35 AM 68.0 °F - 44.6 °F 43% 29.85 in 10.0 mi SSE 17.3 mph 25.3 mph N/A   Clear
12:55 AM 68.0 °F - 46.4 °F 46% 29.87 in 10.0 mi SSE 19.6 mph 24.2 mph N/A   Clear
1:15 AM 68.0 °F - 46.4 °F 46% 29.86 in 10.0 mi SSE 20.7 mph 26.5 mph N/A   Clear
1:35 AM 68.0 °F - 46.4 °F 46% 29.86 in 10.0 mi SSE 23.0 mph 26.5 mph N/A   Clear
1:55 AM 68.0 °F - 46.4 °F 46% 29.85 in 10.0 mi SSE 18.4 mph 31.1 mph N/A   Clear
2:35 AM 68.0 °F - 46.4 °F 46% 29.85 in 10.0 mi SSE 18.4 mph 27.6 mph N/A   Clear
2:55 AM 68.0 °F - 46.4 °F 46% 29.85 in 10.0 mi SSE 18.4 mph 26.5 mph N/A   Clear
3:15 AM 68.0 °F - 46.4 °F 46% 29.85 in 10.0 mi South 16.1 mph 25.3 mph N/A   Clear
3:35 AM 68.0 °F - 46.4 °F 46% 29.86 in 10.0 mi SSE 18.4 mph 23.0 mph N/A   Clear
3:55 AM 68.0 °F - 46.4 °F 46% 29.87 in 10.0 mi South 15.0 mph 20.7 mph N/A   Clear
4:15 AM 68.0 °F - 48.2 °F 49% 29.87 in 10.0 mi SSE 15.0 mph 21.9 mph N/A   Clear
4:35 AM 68.0 °F - 46.4 °F 46% 29.85 in 10.0 mi SSE 17.3 mph 25.3 mph N/A   Clear
4:55 AM 68.0 °F - 48.2 °F 49% 29.85 in 10.0 mi SSE 16.1 mph 21.9 mph N/A   Clear
5:15 AM 68.0 °F - 48.2 °F 49% 29.86 in 10.0 mi SSE 18.4 mph 26.5 mph N/A   Clear
5:35 AM 68.0 °F - 48.2 °F 49% 29.86 in 10.0 mi South 18.4 mph 25.3 mph N/A   Clear
5:55 AM 68.0 °F - 48.2 °F 49% 29.87 in 10.0 mi South 17.3 mph 29.9 mph N/A   Clear
6:15 AM 69.8 °F - 48.2 °F 46% 29.88 in 10.0 mi South 16.1 mph 27.6 mph N/A   Scattered Clouds
6:35 AM 69.8 °F - 48.2 °F 46% 29.88 in 10.0 mi South 17.3 mph 24.2 mph N/A   Overcast
6:55 AM 68.0 °F - 50.0 °F 52% 29.88 in 10.0 mi South 15.0 mph 24.2 mph N/A   Overcast
7:15 AM 68.0 °F - 50.0 °F 52% 29.88 in 10.0 mi SSE 15.0 mph 19.6 mph N/A   Mostly Cloudy
7:35 AM 66.2 °F - 50.0 °F 56% 29.89 in 10.0 mi SSE 13.8 mph - N/A   Scattered Clouds
7:55 AM 64.4 °F - 50.0 °F 59% 29.89 in 10.0 mi SSE 12.7 mph - N/A   Scattered Clouds
8:15 AM 66.2 °F - 50.0 °F 56% 29.88 in 10.0 mi SSE 12.7 mph - N/A   Clear
8:35 AM 68.0 °F - 50.0 °F 52% 29.89 in 10.0 mi SSE 15.0 mph 19.6 mph N/A   Clear
8:55 AM 68.0 °F - 51.8 °F 56% 29.89 in 10.0 mi SSE 15.0 mph 19.6 mph N/A   Clear
9:15 AM 69.8 °F - 51.8 °F 53% 29.89 in 10.0 mi South 19.6 mph 25.3 mph N/A   Clear
9:35 AM 71.6 °F - 51.8 °F 50% 29.90 in 10.0 mi South 25.3 mph 33.4 mph N/A   Clear
9:55 AM 71.6 °F - 53.6 °F 53% 29.90 in 10.0 mi South 27.6 mph 34.5 mph N/A   Clear
10:15 AM 73.4 °F - 53.6 °F 50% 29.90 in 10.0 mi South 26.5 mph 33.4 mph N/A   Clear
10:35 AM 75.2 °F - 53.6 °F 47% 29.90 in 10.0 mi South 25.3 mph 31.1 mph N/A   Clear
10:55 AM 77.0 °F - 55.4 °F 47% 29.90 in 10.0 mi South 26.5 mph 34.5 mph N/A   Clear
11:15 AM 77.0 °F - 55.4 °F 47% 29.90 in 10.0 mi South 26.5 mph 33.4 mph N/A   Clear
11:35 AM 78.8 °F - 55.4 °F 44% 29.90 in 10.0 mi South 24.2 mph 35.7 mph N/A   Clear
11:55 AM 78.8 °F - 57.2 °F 47% 29.90 in 10.0 mi South 28.8 mph 36.8 mph N/A   Clear
12:35 PM 80.6 °F 80.8 °F 57.2 °F 45% 29.89 in 10.0 mi South 21.9 mph 36.8 mph N/A   Scattered Clouds
12:55 PM 78.8 °F - 59.0 °F 51% 29.89 in 10.0 mi South 21.9 mph 34.5 mph N/A   Scattered Clouds
1:15 PM 82.4 °F 82.5 °F 59.0 °F 45% 29.89 in 10.0 mi South 28.8 mph 36.8 mph N/A   Mostly Cloudy
1:35 PM 82.4 °F 82.5 °F 59.0 °F 45% 29.88 in 10.0 mi SSW 23.0 mph 33.4 mph N/A   Mostly Cloudy
1:55 PM 82.4 °F 82.5 °F 59.0 °F 45% 29.88 in 10.0 mi South 29.9 mph 38.0 mph N/A   Overcast
2:15 PM 80.6 °F 81.1 °F 59.0 °F 48% 29.88 in 10.0 mi SSW 21.9 mph 34.5 mph N/A   Overcast
2:35 PM 78.8 °F - 60.8 °F 54% 29.88 in 10.0 mi South 26.5 mph 32.2 mph N/A   Overcast
3:15 PM 78.8 °F - 60.8 °F 54% 29.88 in 10.0 mi SSW 19.6 mph 27.6 mph N/A   Overcast
4:15 PM 78.8 °F - 60.8 °F 54% 29.88 in 10.0 mi South 20.7 mph 35.7 mph N/A   Overcast
4:35 PM 78.8 °F - 60.8 °F 54% 29.88 in 10.0 mi South 24.2 mph 33.4 mph N/A   Overcast
4:55 PM 78.8 °F - 59.0 °F 51% 29.88 in 10.0 mi South 24.2 mph 31.1 mph N/A   Overcast
5:15 PM 78.8 °F - 59.0 °F 51% 29.88 in 10.0 mi South 21.9 mph 32.2 mph N/A   Overcast
5:35 PM 78.8 °F - 59.0 °F 51% 29.88 in 10.0 mi South 20.7 mph 33.4 mph N/A   Overcast
5:55 PM 78.8 °F - 59.0 °F 51% 29.88 in 10.0 mi South 18.4 mph 32.2 mph N/A   Overcast
6:15 PM 78.8 °F - 59.0 °F 51% 29.88 in 10.0 mi South 25.3 mph 29.9 mph N/A   Overcast
6:35 PM 78.8 °F - 59.0 °F 51% 29.87 in 10.0 mi South 24.2 mph 27.6 mph N/A   Overcast
6:55 PM 78.8 °F - 59.0 °F 51% 29.88 in 10.0 mi South 25.3 mph 32.2 mph N/A   Overcast
7:15 PM 78.8 °F - 59.0 °F 51% 29.89 in 10.0 mi South 24.2 mph 28.8 mph N/A   Overcast
7:35 PM 78.8 °F - 59.0 °F 51% 29.90 in 10.0 mi South 21.9 mph 28.8 mph N/A   Overcast
7:55 PM 77.0 °F - 59.0 °F 54% 29.91 in 10.0 mi South 16.1 mph 24.2 mph N/A   Overcast
8:15 PM 77.0 °F - 59.0 °F 54% 29.92 in 10.0 mi South 18.4 mph 25.3 mph N/A   Overcast
8:35 PM 77.0 °F - 59.0 °F 54% 29.92 in 10.0 mi South 15.0 mph - N/A   Overcast
8:55 PM 77.0 °F - 59.0 °F 54% 29.92 in 10.0 mi South 17.3 mph 21.9 mph N/A   Overcast
9:15 PM 77.0 °F - 59.0 °F 54% 29.94 in 10.0 mi South 19.6 mph 23.0 mph N/A   Overcast
9:35 PM 77.0 °F - 59.0 °F 54% 29.95 in 10.0 mi South 19.6 mph 26.5 mph N/A   Overcast
9:55 PM 77.0 °F - 59.0 °F 54% 29.95 in 10.0 mi South 19.6 mph 26.5 mph N/A   Overcast
10:15 PM 75.2 °F - 59.0 °F 57% 29.95 in 10.0 mi South 20.7 mph 29.9 mph N/A   Overcast
10:35 PM 75.2 °F - 59.0 °F 57% 29.95 in 10.0 mi South 18.4 mph 25.3 mph N/A   Overcast
10:55 PM 75.2 °F - 59.0 °F 57% 29.96 in 10.0 mi South 17.3 mph 24.2 mph N/A   Overcast
11:15 PM 73.4 °F - 57.2 °F 57% 29.95 in 10.0 mi South 17.3 mph 26.5 mph N/A   Overcast
11:35 PM 73.4 °F - 57.2 °F 57% 29.95 in 10.0 mi South 16.1 mph 20.7 mph N/A   Mostly Cloudy
11:55 PM 73.4 °F - 57.2 °F 57% 29.96 in 10.0 mi South 15.0 mph - N/A   Mostly Cloudy